This is the latest recevied weather packets stored in our database for station/object N0KWA. If no packets are shown the sender has not sent any weather packets the latest 10 day(s).
| Time | Temp. | Humidity | Pressure | Rain* | Wind** | Luminosity | Snow |
|---|---|---|---|---|---|---|---|
| 1777727960 | 11.67° C | 99% | 1018.2 hPa | 0 mm | - | 22 W/m² | - |
| 1777727656 | 11.67° C | 99% | 1018 hPa | 0 mm | - | 16 W/m² | - |
| 1777727353 | 11.67° C | 99% | 1018 hPa | 0 mm | - | 11 W/m² | - |
| 1777727050 | 11.67° C | 99% | 1017.9 hPa | 0 mm | - | 9 W/m² | - |
| 1777726748 | 11.67° C | 99% | 1017.7 hPa | 0 mm | - | 8 W/m² | - |
| 1777726445 | 11.67° C | 99% | 1017.6 hPa | 0 mm | - | 8 W/m² | - |
| 1777726141 | 11.67° C | 99% | 1017.5 hPa | 0 mm | - | 6 W/m² | - |
| 1777725838 | 11.67° C | 99% | 1017.3 hPa | 0 mm | - | 3 W/m² | - |
| 1777725530 | 11.67° C | 99% | 1017.2 hPa | 0 mm | - | 3 W/m² | - |
| 1777725228 | 11.67° C | 99% | 1016.9 hPa | 0 mm | - | 3 W/m² | - |
| 1777724925 | 11.67° C | 99% | 1016.7 hPa | 0 mm | - | 3 W/m² | - |
| 1777724620 | 11.67° C | 99% | 1016.7 hPa | 0 mm | - | 4 W/m² | - |
| 1777724319 | 11.67° C | 99% | 1016.7 hPa | 0 mm | - | 3 W/m² | - |
| 1777724016 | 11.67° C | 99% | 1016.9 hPa | 0 mm | - | 3 W/m² | - |
| 1777723713 | 11.67° C | 99% | 1016.9 hPa | 0 mm | - | 3 W/m² | - |
| 1777723409 | 11.67° C | 99% | 1016.7 hPa | 0 mm | - | 3 W/m² | - |
| 1777723107 | 11.11° C | 99% | 1016.9 hPa | 0 mm | - | 2 W/m² | - |
| 1777722804 | 11.11° C | 99% | 1016.9 hPa | 0 mm | - | 1 W/m² | - |
| 1777722500 | 11.11° C | 99% | 1017 hPa | 0 mm | - | 1 W/m² | - |
| 1777722197 | 11.11° C | 99% | 1017 hPa | 0 mm | - | 0 W/m² | - |
| 1777721894 | 11.11° C | 99% | 1016.8 hPa | 0 mm | - | 0 W/m² | - |
| 1777721592 | 11.11° C | 99% | 1016.6 hPa | 0 mm | - | 0 W/m² | - |
| 1777721290 | 11.11° C | 99% | 1016.6 hPa | 0 mm | - | 0 W/m² | - |
| 1777720987 | 11.11° C | 99% | 1016.6 hPa | 0 mm | - | 0 W/m² | - |
| 1777720684 | 11.11° C | 99% | 1016.4 hPa | 0 mm | - | 0 W/m² | - |
* Rain latest hour (hover to see other rain measurements)
** Current wind speed in m/s (hover to see current wind gust speed)